Hors Challenge

Le trail des étoiles - Oteppe (10.00 km)

vendredi 22 novembre 2019

Vous pouvez trouver Le classement original sur : https://sites.google.com/view/hesbytrailnew
 
LE TRAIL DES ÉTOILES - OTEPPE
DISTANCE : 11.27 km
vendredi 22 novembre 2019
 
Place dos NOM Catégorie Pl/cat temps temps/km Vitesse
01:00:00              
1 834 STEVENS PHILIPPE HOMME 1 0:50:04 04:27 13.50
2 827 SKILBECQ PIERRE HOMME 2 0:50:04 04:27 13.50
3 671 HANSELAER WILLEM HOMME 3 0:50:12 04:27 13.46
4 659 GOURGUE BENJAMIN HOMME 4 0:51:30 04:34 13.12
5 694 JÉRÔME GILLES HOMME 5 0:53:24 04:44 12.66
6 585 DE WINTER ROMAN HOMME 6 0:53:54 04:47 12.54
7 588 DEFAYS CHARLES HOMME 7 0:54:18 04:49 12.45
8 649 FRANÇOIS CHRISTOPHER HOMME 8 0:55:33 04:56 12.17
9 572 D’ANS THIERRY HOMME 9 0:55:40 04:56 12.14
10 662 GRIFNEE JOHAN HOMME 10 0:58:41 05:13 11.52
11 846 VAESEN PHILIPPE HOMME 11 0:58:53 05:14 11.48
12 582 DE COCK CHARIEL DAME 1 0:59:06 05:15 11.44
13 673 HAUGLUSTAINE PIERRE HOMME 12 1:00:10 05:20 11.23
14 643 FOLDESI DAVID HOMME 13 1:00:17 05:21 11.21
15 739 MAIRLOT ADRIEN HOMME 14 1:00:20 05:21 11.20
16 506 ANCION GILLES HOMME 15 1:00:24 05:22 11.19
17 818 SCHODER HUGO HOMME 16 1:01:13 05:26 11.04
18 731 LESSIRE OLIVIER HOMME 17 1:01:23 05:27 11.01
19 828 SKILBECQ THOMAS HOMME 18 1:02:27 05:33 10.82
20 584 DE VIRON BRIEUC HOMME 19 1:02:30 05:33 10.81
21 707 KERSTEN RENAUD HOMME 20 1:02:37 05:34 10.79
22 408 ALPESSE QUENTIN HOMME 21 1:03:05 05:36 10.71
23 838 STREELS JOHAN HOMME 22 1:03:11 05:37 10.70
24 652 GARCIA MAXIME HOMME 23 1:04:04 05:41 10.55
25 780 OLIVIER BASTIEN HOMME 24 1:04:17 05:42 10.51
26 836 STIERS STEVEN HOMME 25 1:04:24 05:43 10.50
27 404 PIRARD DAVID HOMME 26 1:04:40 05:44 10.45
28 665 GUBIN JUSTINE DAME 2 1:06:09 05:52 10.22
29 600 DENIS OLIVIER HOMME 27 1:06:11 05:53 10.21
30 672 HANSEN PASCAL HOMME 28 1:06:14 05:53 10.20
31 601 DERCLAYE ALAIN HOMME 29 1:06:17 05:53 10.20
32 517 BERGER MARINE DAME 3 1:06:25 05:54 10.18
33 854 VAN GORP MAXIME HOMME 30 1:09:25 06:10 9.74
34 415 DE WOOT GILLES HOMME 31 1:09:39 06:11 9.70
35 668 GUYOT JEREMY HOMME 32 1:09:50 06:12 9.68
36 771 NAUDTS GAËTAN HOMME 33 1:09:58 06:13 9.66
37 551 CHARLES RENAUD HOMME 34 1:10:14 06:14 9.62
38 676 HENRION SVEN HOMME 35 1:10:18 06:14 9.61
39 515 BELLAIRE JONATHAN HOMME 36 1:10:21 06:15 9.61
40 647 FONTAINE ROBIN HOMME 37 1:10:28 06:15 9.59
41 541 BURLET MATHIS HOMME 38 1:10:35 06:16 9.58
42 634 ETIENNE PHILIPPE HOMME 39 1:10:44 06:17 9.56
43 402 DEWITTE SÉBASTIEN HOMME 40 1:10:51 06:17 9.54
44 403 GOMEZ MATÉO HOMME 41 1:10:53 06:18 9.54
45 626 DUCULOT MAXIME HOMME 42 1:11:07 06:19 9.50
46 859 VANDENBOSCH MICHEL HOMME 43 1:11:35 06:21 9.44
47 727 LÉONARD SARAH DAME 4 1:11:43 06:22 9.42
48 638 FIEUW MORGAN HOMME 44 1:11:45 06:22 9.42
49 826 SINTE JULIEN HOMME 45 1:12:03 06:24 9.38
50 814 ROUSSEAU ANDRE HOMME 46 1:12:04 06:24 9.38
51 855 VAN HESPEN BENOIT HOMME 47 1:12:24 06:26 9.34
52 757 MATTERNE MAXIME HOMME 48 1:12:37 06:27 9.31
53 840 TAILLIEU NICOLAS HOMME 49 1:13:27 06:31 9.20
54 766 MOSSAY JESSICA DAME 5 1:13:52 06:33 9.15
55 559 CLOSSON MAXIME HOMME 50 1:13:54 06:34 9.15
56 718 LAMBRICHTS LOÏC HOMME 51 1:14:00 06:34 9.13
57 628 DUMINUCO NICOLA HOMME 52 1:14:54 06:39 9.02
58 579 DAWANT JEREMIE HOMME 53 1:15:02 06:40 9.01
59 796 PETIT SEBASTIEN HOMME 54 1:15:05 06:40 9.00
60 605 DESORT DIMITRI HOMME 55 1:16:08 06:46 8.88
61 539 BROSE CHRISTOPHE HOMME 56 1:16:12 06:46 8.87
62 616 DIRICK SANDRINE DAME 6 1:16:14 06:46 8.87
63 871 VERDIN VÉRONIQUE DAME 7 1:16:18 06:46 8.86
64 837 STORELLI KEVIN HOMME 57 1:16:21 06:47 8.85
65 709 KIRTEN PIERRE HOMME 58 1:16:23 06:47 8.85
66 848 VALDES LUKA HOMME 59 1:16:45 06:49 8.81
67 872 VORIMORE MARIE DAME 8 1:16:49 06:49 8.80
68 822 SCOHIER GONTRAN HOMME 60 1:16:57 06:50 8.78
69 807 RASSART JORICK HOMME 61 1:18:01 06:56 8.66
70 696 JOB LUDOVIC HOMME 62 1:18:05 06:56 8.66
71 617 DUMONT BERNARD HOMME 63 1:18:19 06:57 8.63
72 564 CONSTANT THIBAUT HOMME 64 1:18:23 06:57 8.62
73 722 LEGRAS BENJAMIN HOMME 65 1:18:24 06:58 8.62
74 698 JULÉMONT STÉPHANIE DAME 9 1:18:26 06:58 8.62
75 695 JOACHIM PIERRE HOMME 66 1:18:38 06:59 8.60
76 883 WIECKOWSKI SEBASTIEN HOMME 67 1:18:41 06:59 8.59
77 547 CATOUL GERALD HOMME 68 1:18:52 07:00 8.57
78 835 STIERS JIMMY HOMME 69 1:19:16 07:02 8.53
79 571 D'HOKER STEFAAN HOMME 70 1:19:17 07:02 8.53
80 667 GUILMOT AUDREY DAME 10 1:19:25 07:03 8.51
81 832 STASSE VÉRONIQUE DAME 11 1:20:29 07:09 8.40
82 866 VANGOIDSENHOVEN GERT HOMME 71 1:20:35 07:09 8.39
83 773 NEUKERMANS BART HOMME 72 1:20:46 07:10 8.37
84 688 INGEBOS CLÉMENT HOMME 73 1:20:56 07:11 8.35
85 642 FLAGOTHIER CÉLINE DAME 12 1:21:03 07:12 8.34
86 740 MAIRLOT DANIEL HOMME 74 1:21:14 07:13 8.32
87 587 DEBRA LAURENT HOMME 75 1:21:37 07:15 8.28
88 594 DELFOSSE THIBAUT HOMME 76 1:22:08 07:17 8.23
89 682 HOCK ALLISON DAME 13 1:22:09 07:18 8.23
90 845 TRISMAN ADAM HOMME 77 1:22:11 07:18 8.22
91 873 VUEGEN FRÉDÉRIC HOMME 78 1:22:15 07:18 8.22
92 542 BURLET OLIVIER HOMME 79 1:22:26 07:19 8.20
93 849 VALLI RAPHAËL HOMME 80 1:22:27 07:19 8.20
94 868 VANNECK ISABEL DAME 14 1:22:29 07:19 8.19
95 690 JACOB VALENTIN HOMME 81 1:22:30 07:19 8.19
96 861 VANDERGEETEN CLAIRE DAME 15 1:22:31 07:20 8.19
97 803 POLAIN CHRISTOPHE HOMME 82 1:22:33 07:20 8.19
98 794 PEETERS OLIVIER HOMME 83 1:22:38 07:20 8.18
99 730 LEROY JULIE DAME 16 1:25:02 07:33 7.95
100 405 MORSA HENRI HOMME 84 1:25:05 07:33 7.94
101 566 CORIA DENIS HOMME 85 1:25:09 07:34 7.94
102 525 BOLLINNE LAURENT HOMME 86 1:25:38 07:36 7.89
103 527 BOLLINNE PIERRE-YVES HOMME 87 1:25:41 07:36 7.89
104 765 MORUE SÉBASTIEN HOMME 88 1:25:49 07:37 7.88
105 702 KEMPINAIRE PATRICIA DAME 17 1:26:27 07:40 7.82
106 573 DAEMS FREDERIC HOMME 89 1:26:35 07:41 7.81
107 421 DUPONT PIERRE HOMME 90 1:26:36 07:41 7.80
108 512 BAUWIN BERTRAND HOMME 91 1:26:39 07:42 7.80
109 770 NANIOT DELPHINE DAME 18 1:26:57 07:43 7.77
110 856 VAN NUNEN AUDREY DAME 19 1:27:15 07:45 7.75
111 534 BRAGARD DOMINIQUE HOMME 92 1:27:35 07:46 7.72
112 526 BOLLINNE SYLVAIN HOMME 93 1:28:07 07:49 7.67
113 532 BOURLET NICOLAS HOMME 94 1:28:15 07:50 7.66
114 841 TALLIEU LOÏC HOMME 95 1:28:54 07:54 7.60
115 886 WOUTERS VINCENT HOMME 96 1:29:55 07:59 7.52
116 758 MINSTER VALÉRIE DAME 20 1:30:05 08:00 7.50
117 719 LAMPROYE STEPHANIE DAME 21 1:30:22 08:01 7.48
118 593 DELCOURT RAPHAEL HOMME 97 1:30:26 08:02 7.47
119 632 ENTHOVEN SOPHIE DAME 22 1:30:30 08:02 7.47
120 853 VAN EYCKEN CEDRIC HOMME 98 1:30:49 08:04 7.44
121 611 DETHIER CYRIELLE DAME 23 1:30:53 08:04 7.44
122 610 DETHIER CELIA DAME 24 1:30:54 08:04 7.44
123 863 VANDEVELDE LIESBET DAME 25 1:31:29 08:07 7.39
124 590 DEGREEF INE DAME 26 1:31:31 08:07 7.39
125 417 MARTINEZ AURÉLIE DAME 27 1:31:34 08:08 7.38
126 789 PAQUET JONATHAN HOMME 99 1:31:39 08:08 7.37
127 763 MORAY MELANIE DAME 28 1:31:41 08:08 7.37
128 768 MULLER DELPHINE DAME 29 1:31:54 08:09 7.35
129 705 KERRIS CEDRIC HOMME 100 1:32:25 08:12 7.31
130 804 POLET JUSTINE DAME 30 1:32:34 08:13 7.30
131 686 HULSMAN MARCEL HOMME 101 1:32:49 08:14 7.28
132 633 ETIENNE EVELYNE DAME 31 1:32:50 08:14 7.28
133 808 RENARD LEOPOLD HOMME 102 1:33:36 08:19 7.22
134 692 JANSSEN RAPHAEL HOMME 103 1:33:37 08:19 7.22
135 562 COLLIN JERRY HOMME 104 1:33:40 08:19 7.22
136 675 HELLA FABIENNE DAME 32 1:33:50 08:20 7.20
137 790 PEETERS ANNE-SOPHIE DAME 33 1:34:02 08:21 7.19
138 704 KEPPENNE EVELYNE DAME 34 1:34:25 08:23 7.16
139 791 PEETERS CAROLINE DAME 35 1:34:46 08:25 7.13
140 877 WATTEIJNE CHARLES HOMME 105 1:34:49 08:25 7.13
141 754 MATHIEU ERIC HOMME 106 1:34:51 08:25 7.13
142 583 DE LA PORTE MEGHAN DAME 36 1:35:49 08:30 7.05
143 724 LEJEUNE RAPHAEL HOMME 107 1:35:53 08:31 7.05
144 742 MALOTAUX MELISSA DAME 37 1:35:56 08:31 7.05
145 734 LONGLE EMILIE DAME 38 1:35:58 08:31 7.04
146 629 DUPONT OLIVIER HOMME 108 1:35:58 08:31 7.04
147 581 DE BONDT NADJA DAME 39 1:36:56 08:36 6.97
148 799 PIROT CECILE DAME 40 1:37:36 08:40 6.93
149 775 NICLAES WENDY DAME 41 1:39:42 08:51 6.78
150 414 DROSSARD KOBE HOMME 109 1:39:44 08:51 6.78
151 842 TESTOURI SORAYA DAME 42 1:39:47 08:51 6.77
152 782 OP DE BEECK WERNER HOMME 110 1:40:04 08:53 6.75
153 759 MOMMEN SANXI HOMME 111 1:40:19 08:54 6.74
154 568 CRANINX PIERRE HOMME 112 1:40:28 08:55 6.73
155 809 RIGO OPHÉLIE DAME 43 1:40:41 08:56 6.71
156 853 VAN EYCKEN CEDRIC HOMME 113 1:41:08 08:59 6.68
157 545 CANNELLA CLAUDE DAME 44 1:41:10 08:59 6.68
158 802 PLEWNIAK LAURENT HOMME 114 1:41:53 09:03 6.63
159 602 DERCQ JULIEN HOMME 115 1:42:13 09:04 6.61
160 874 WALRAVENS CATHY DAME 45 1:42:46 09:07 6.58
161 606 DESSART DELPHINE DAME 46 1:42:47 09:07 6.58
162 761 MONJOIE VIRGINIE DAME 47 1:42:49 09:08 6.57
163 793 PEETERS JEAN-FRANÇOIS HOMME 116 1:45:44 09:23 6.39
164 887 YANSENNE ALEX HOMME 117 1:46:36 09:28 6.34
165 713 LALLEMAND VIRGINIE DAME 48 01:46:52 09:29 6.32
166 864 VANDROOGENBROECK STEPHANE HOMME 118 01:46:59 09:30 6.32
167 574 DAENEN ARNAUD HOMME 119 01:48:00 09:35 6.26
168 592 DELAIRESSE LAURA DAME 49 01:49:30 09:43 6.17
169 576 DARDENNE CAROLINE DAME 50 01:51:30 09:54 6.06
170 411 MAQUET SYLVIE DAME 51 01:52:21 09:58 6.02
171 749 NEVEU MAELLE DAME 52 01:53:20 10:04 5.96
172 529 BOMHALS JASON HOMME 120 01:53:21 10:04 5.96
173 635 EVANS FRÉDÉRIQUE DAME 53 01:53:29 10:04 5.96
174 603 DESCAMPE SYBILLE DAME 54 01:54:09 10:08 5.92
175 503 ALAIME SEBASTIEN HOMME 121 01:54:49 10:12 5.89
176 575 DARDENNE CAROLE DAME 55 01:54:50 10:12 5.89
177 597 DELLA LIBERA CLARA DAME 56 01:56:02 10:18 5.83
178 741 MAIRLOT MARTIN HOMME 122 01:56:23 10:20 5.81
179 711 KRINGS AUDREY DAME 57 01:56:25 10:20 5.81
180 691 JADOUL APOLLINE DAME 58 01:56:28 10:20 5.80
181 523 BODART VÉRONIQUE DAME 59 01:56:42 10:22 5.79
182 679 HERMAN VALÉRIE DAME 60 01:56:54 10:23 5.78
183 650 FRANCOTTE MURIEL DAME 61 01:57:00 10:23 5.78
184 631 ELIARD MARINE DAME 62 01:57:52 10:28 5.73
185 618 DOCQUIER MANON DAME 63 01:57:56 10:28 5.73
186 630 ELIARD FABIEN HOMME 123 01:57:57 10:28 5.73
187 614 DEVOS JEAN DANIEL HOMME 124 01:58:02 10:29 5.73
188 619 DOCQUIER RUDI HOMME 125 01:58:04 10:29 5.72
189 577 DARDENNE ANDRE HOMME 126 02:03:40 10:59 5.47
190 772 NEUFCOEUR AURELIE DAME 64 02:03:41 10:59 5.46
191 663 GROSJEAN LIONEL HOMME 127 02:03:44 10:59 5.46
192 748 MARTIN CAROLINE DAME 65 02:07:07 11:17 5.32
193 586 DEBATY ALAIN HOMME 128 02:10:08 11:33 5.19
194 844 TORTEL MARIE DAME 66 02:10:21 11:34 5.19
195 760 MONFORT CAROLINE DAME 67 02:10:23 11:34 5.18
196 657 GILLET OCÉANE DAME 68 02:10:26 11:35 5.18
197 513 BECK SANDRINE DAME 69 02:17:19 12:11 4.92
198 752 MASSART GÉRALDINE DAME 70 02:17:22 12:12 4.92
199 729 LEROY LYSIANE DAME 71 02:17:26 12:12 4.92
200 779 NUYTS SANDRINE DAME 72 02:17:26 12:12 4.92
               
Nos dernières videos